HSNUMN VTUK-VTBD

Flight info

Callsign HSNUMN
Flight time 1h 4m
Altitude 8000
Route NEMTE1B NEMTE Y2 UBLOD ENDUU3A
Aircraft C208/L-SDFGR/C

Departure

Time 2026-05-06 09:32
Airport Khon Kaen Airport (VTUK)

Arrival

Time 2026-05-06 10:37
Airport Don Mueang International Airport (VTBD)
Time Latitude Longitude Altitude Speed Heading
2026-05-06 09:18 16.46323 102.78391 633 ft 0 kts 122°
2026-05-06 09:28 16.46322 102.78394 630 ft 2 kts 95°
2026-05-06 09:29 16.46350 102.78367 631 ft 6 kts 321°
2026-05-06 09:29 16.46395 102.78390 632 ft 9 kts 33°
2026-05-06 09:29 16.46465 102.78437 634 ft 11 kts 33°
2026-05-06 09:29 16.46534 102.78483 637 ft 13 kts 32°
2026-05-06 09:30 16.46706 102.78599 642 ft 26 kts 33°
2026-05-06 09:30 16.46805 102.78666 645 ft 11 kts 33°
2026-05-06 09:30 16.46843 102.78691 646 ft 3 kts 33°
2026-05-06 09:30 16.46848 102.78694 647 ft 0 kts 33°
2026-05-06 09:31 16.46863 102.78696 647 ft 9 kts 332°
2026-05-06 09:31 16.46886 102.78659 647 ft 10 kts 296°
2026-05-06 09:31 16.46933 102.78572 645 ft 15 kts 282°
2026-05-06 09:32 16.46736 102.78414 640 ft 67 kts 213°
2026-05-06 09:32 16.46211 102.78066 729 ft 83 kts 216°
2026-05-06 09:32 16.45838 102.77829 1198 ft 78 kts 203°
2026-05-06 09:32 16.45264 102.77570 1372 ft 101 kts 201°
2026-05-06 09:33 16.44558 102.77268 1591 ft 117 kts 200°
2026-05-06 09:33 16.43769 102.76967 1822 ft 124 kts 198°
2026-05-06 09:33 16.42967 102.76614 2049 ft 127 kts 215°
2026-05-06 09:33 16.42299 102.76017 2295 ft 129 kts 218°
2026-05-06 09:34 16.41587 102.75435 2555 ft 131 kts 216°
2026-05-06 09:34 16.40853 102.74861 2822 ft 133 kts 215°
2026-05-06 09:34 16.40109 102.74286 3086 ft 134 kts 214°
2026-05-06 09:34 16.39356 102.73710 3343 ft 134 kts 215°
2026-05-06 09:35 16.38603 102.73136 3609 ft 134 kts 215°
2026-05-06 09:35 16.37859 102.72570 3889 ft 131 kts 215°
2026-05-06 09:35 16.37127 102.72013 4172 ft 130 kts 215°
2026-05-06 09:35 16.36401 102.71463 4460 ft 129 kts 215°
2026-05-06 09:36 16.35678 102.70917 4747 ft 128 kts 215°
2026-05-06 09:36 16.34957 102.70373 5022 ft 128 kts 216°
2026-05-06 09:36 16.34238 102.69829 5310 ft 128 kts 216°
2026-05-06 09:36 16.33512 102.69280 5575 ft 130 kts 216°
2026-05-06 09:37 16.32777 102.68725 5841 ft 131 kts 217°
2026-05-06 09:37 16.32038 102.68168 6110 ft 131 kts 217°
2026-05-06 09:37 16.31296 102.67607 6369 ft 132 kts 217°
2026-05-06 09:37 16.30550 102.67042 6620 ft 133 kts 216°
2026-05-06 09:38 16.29798 102.66473 6876 ft 134 kts 217°
2026-05-06 09:38 16.29042 102.65903 7131 ft 135 kts 217°
2026-05-06 09:38 16.28282 102.65329 7391 ft 135 kts 217°
2026-05-06 09:38 16.27519 102.64751 7648 ft 136 kts 217°
2026-05-06 09:39 16.26749 102.64171 7883 ft 138 kts 216°
2026-05-06 09:39 16.25949 102.63567 8005 ft 149 kts 216°
2026-05-06 09:39 16.25089 102.62916 8012 ft 160 kts 217°
2026-05-06 09:39 16.24153 102.62209 8006 ft 174 kts 216°
2026-05-06 09:40 16.23131 102.61446 8007 ft 186 kts 216°
2026-05-06 09:40 16.22061 102.60647 8007 ft 192 kts 216°
2026-05-06 09:40 16.19864 102.58994 8006 ft 197 kts 216°
2026-05-06 09:41 16.18754 102.58160 8009 ft 197 kts 217°
2026-05-06 09:41 16.17643 102.57320 8009 ft 198 kts 216°
2026-05-06 09:41 16.16528 102.56480 8009 ft 198 kts 216°
2026-05-06 09:41 16.15409 102.55638 8008 ft 199 kts 217°
2026-05-06 09:42 16.14292 102.54796 8005 ft 198 kts 217°
2026-05-06 09:42 16.13175 102.53952 8004 ft 198 kts 216°
2026-05-06 09:42 16.12059 102.53111 8004 ft 198 kts 216°
2026-05-06 09:42 16.10942 102.52272 8001 ft 198 kts 216°
2026-05-06 09:43 16.09822 102.51428 8000 ft 199 kts 217°
2026-05-06 09:43 16.08703 102.50584 8000 ft 199 kts 216°
2026-05-06 09:43 16.07582 102.49740 8000 ft 199 kts 216°
2026-05-06 09:43 16.06461 102.48897 7999 ft 199 kts 216°
2026-05-06 09:44 16.05338 102.48057 8000 ft 199 kts 215°
2026-05-06 09:44 16.04206 102.47232 7993 ft 199 kts 215°
2026-05-06 09:44 16.03076 102.46406 7993 ft 199 kts 216°
2026-05-06 09:44 16.01948 102.45577 7992 ft 199 kts 216°
2026-05-06 09:45 16.00818 102.44745 7990 ft 199 kts 216°
2026-05-06 09:45 15.99686 102.43914 7989 ft 199 kts 216°
2026-05-06 09:45 15.98554 102.43084 7988 ft 199 kts 216°
2026-05-06 09:45 15.97422 102.42253 7985 ft 199 kts 216°
2026-05-06 09:46 15.96289 102.41420 7987 ft 200 kts 215°
2026-05-06 09:46 15.95155 102.40588 7986 ft 200 kts 216°
2026-05-06 09:46 15.94023 102.39758 7986 ft 199 kts 216°
2026-05-06 09:46 15.93276 102.39211 7986 ft 198 kts 216°
2026-05-06 09:47 15.92152 102.38383 7987 ft 198 kts 216°
2026-05-06 09:47 15.91025 102.37558 7986 ft 198 kts 216°
2026-05-06 09:47 15.89533 102.36464 7984 ft 198 kts 216°
2026-05-06 09:47 15.88410 102.35639 7986 ft 198 kts 216°
2026-05-06 09:48 15.87286 102.34815 7986 ft 198 kts 216°
2026-05-06 09:48 15.86163 102.33991 7986 ft 198 kts 216°
2026-05-06 09:48 15.85403 102.33435 7980 ft 198 kts 215°
2026-05-06 09:48 15.84279 102.32610 7973 ft 198 kts 216°
2026-05-06 09:49 15.83154 102.31786 7971 ft 198 kts 215°
2026-05-06 09:49 15.82028 102.30964 7971 ft 198 kts 216°
2026-05-06 09:49 15.80541 102.29871 7972 ft 198 kts 216°
2026-05-06 09:49 15.79782 102.29314 7972 ft 198 kts 216°
2026-05-06 09:50 15.78671 102.28502 7972 ft 198 kts 216°
2026-05-06 09:50 15.77531 102.27667 7971 ft 198 kts 216°
2026-05-06 09:50 15.76420 102.26855 7971 ft 198 kts 216°
2026-05-06 09:50 15.75296 102.26030 7972 ft 198 kts 216°
2026-05-06 09:51 15.74170 102.25205 7976 ft 198 kts 216°
2026-05-06 09:51 15.73046 102.24382 7975 ft 198 kts 216°
2026-05-06 09:51 15.71920 102.23560 7974 ft 198 kts 216°
2026-05-06 09:51 15.70796 102.22736 7975 ft 198 kts 216°
2026-05-06 09:52 15.69672 102.21914 7975 ft 198 kts 216°
2026-05-06 09:52 15.68547 102.21091 7975 ft 198 kts 216°
2026-05-06 09:52 15.67424 102.20268 7975 ft 198 kts 215°
2026-05-06 09:52 15.66297 102.19445 7974 ft 198 kts 215°
2026-05-06 09:53 15.65171 102.18622 7966 ft 198 kts 215°
2026-05-06 09:53 15.64045 102.17798 7967 ft 198 kts 215°
2026-05-06 09:53 15.62919 102.16974 7966 ft 198 kts 215°
2026-05-06 09:53 15.61792 102.16152 7966 ft 198 kts 215°
2026-05-06 09:54 15.60666 102.15328 7963 ft 198 kts 215°
2026-05-06 09:54 15.59540 102.14504 7963 ft 198 kts 215°
2026-05-06 09:54 15.58414 102.13682 7961 ft 198 kts 215°
2026-05-06 09:54 15.57287 102.12859 7960 ft 198 kts 215°
2026-05-06 09:55 15.56162 102.12036 7961 ft 198 kts 215°
2026-05-06 09:55 15.55037 102.11214 7961 ft 198 kts 215°
2026-05-06 09:55 15.53910 102.10392 7961 ft 198 kts 215°
2026-05-06 09:55 15.52785 102.09569 7960 ft 198 kts 215°
2026-05-06 09:56 15.51659 102.08748 7961 ft 198 kts 215°
2026-05-06 09:56 15.50531 102.07925 7960 ft 198 kts 215°
2026-05-06 09:56 15.49404 102.07103 7960 ft 198 kts 215°
2026-05-06 09:56 15.48278 102.06280 7960 ft 198 kts 215°
2026-05-06 09:57 15.47150 102.05457 7958 ft 198 kts 215°
2026-05-06 09:57 15.46038 102.04646 7957 ft 198 kts 215°
2026-05-06 09:57 15.44911 102.03823 7958 ft 198 kts 215°
2026-05-06 09:57 15.43784 102.03002 7958 ft 198 kts 215°
2026-05-06 09:58 15.42654 102.02177 7959 ft 199 kts 215°
2026-05-06 09:58 15.41524 102.01354 7958 ft 199 kts 215°
2026-05-06 09:58 15.40394 102.00529 7959 ft 199 kts 215°
2026-05-06 09:58 15.39263 101.99705 7958 ft 199 kts 215°
2026-05-06 09:59 15.38132 101.98881 7958 ft 199 kts 215°
2026-05-06 09:59 15.37002 101.98057 7958 ft 199 kts 215°
2026-05-06 09:59 15.35870 101.97233 7959 ft 199 kts 215°
2026-05-06 09:59 15.34740 101.96409 7958 ft 199 kts 215°
2026-05-06 10:00 15.33610 101.95585 7963 ft 198 kts 215°
2026-05-06 10:00 15.32479 101.94761 7962 ft 199 kts 215°
2026-05-06 10:00 15.31349 101.93938 7967 ft 198 kts 214°
2026-05-06 10:00 15.30223 101.93119 7967 ft 198 kts 214°
2026-05-06 10:01 15.29099 101.92300 7967 ft 197 kts 214°
2026-05-06 10:01 15.27977 101.91483 7965 ft 197 kts 214°
2026-05-06 10:01 15.26854 101.90666 7964 ft 197 kts 214°
2026-05-06 10:01 15.25732 101.89850 7964 ft 197 kts 214°
2026-05-06 10:02 15.24610 101.89032 7963 ft 197 kts 214°
2026-05-06 10:02 15.23486 101.88215 7964 ft 197 kts 214°
2026-05-06 10:02 15.22364 101.87398 7963 ft 197 kts 214°
2026-05-06 10:02 15.21241 101.86582 7964 ft 197 kts 214°
2026-05-06 10:03 15.20120 101.85766 7963 ft 197 kts 214°
2026-05-06 10:03 15.18998 101.84950 7964 ft 197 kts 214°
2026-05-06 10:03 15.17876 101.84134 7966 ft 197 kts 214°
2026-05-06 10:03 15.16754 101.83320 7966 ft 197 kts 214°
2026-05-06 10:04 15.15634 101.82504 7968 ft 197 kts 214°
2026-05-06 10:04 15.14513 101.81690 7969 ft 197 kts 214°
2026-05-06 10:04 15.13392 101.80874 7968 ft 197 kts 214°
2026-05-06 10:04 15.12271 101.80060 7969 ft 197 kts 214°
2026-05-06 10:05 15.11149 101.79244 7968 ft 197 kts 214°
2026-05-06 10:05 15.10027 101.78430 7969 ft 197 kts 214°
2026-05-06 10:05 15.08905 101.77615 7968 ft 197 kts 214°
2026-05-06 10:05 15.07799 101.76812 7969 ft 197 kts 214°
2026-05-06 10:06 15.06676 101.75996 7969 ft 197 kts 214°
2026-05-06 10:06 15.05553 101.75181 7969 ft 197 kts 214°
2026-05-06 10:06 15.04431 101.74366 7979 ft 197 kts 214°
2026-05-06 10:06 15.03308 101.73551 7980 ft 197 kts 214°
2026-05-06 10:07 15.02186 101.72736 7979 ft 197 kts 214°
2026-05-06 10:07 15.01064 101.71922 7980 ft 197 kts 214°
2026-05-06 10:07 14.99942 101.71107 7979 ft 197 kts 214°
2026-05-06 10:07 14.98820 101.70294 7980 ft 197 kts 214°
2026-05-06 10:08 14.97697 101.69479 7979 ft 197 kts 214°
2026-05-06 10:08 14.96574 101.68665 7980 ft 197 kts 214°
2026-05-06 10:08 14.95453 101.67852 7979 ft 197 kts 214°
2026-05-06 10:08 14.94332 101.67038 7980 ft 197 kts 214°
2026-05-06 10:09 14.93210 101.66225 7979 ft 197 kts 214°
2026-05-06 10:09 14.92086 101.65409 7980 ft 197 kts 214°
2026-05-06 10:09 14.90962 101.64594 7990 ft 198 kts 214°
2026-05-06 10:09 14.89837 101.63779 7991 ft 197 kts 214°
2026-05-06 10:10 14.88712 101.62964 7990 ft 197 kts 214°
2026-05-06 10:10 14.87586 101.62149 7991 ft 198 kts 214°
2026-05-06 10:10 14.86462 101.61334 7990 ft 198 kts 214°
2026-05-06 10:10 14.85336 101.60518 7991 ft 198 kts 214°
2026-05-06 10:11 14.84210 101.59703 7990 ft 197 kts 214°
2026-05-06 10:11 14.83085 101.58888 7991 ft 197 kts 214°
2026-05-06 10:11 14.81961 101.58074 7990 ft 197 kts 214°
2026-05-06 10:11 14.80836 101.57259 7991 ft 197 kts 214°
2026-05-06 10:12 14.79725 101.56455 7990 ft 198 kts 214°
2026-05-06 10:12 14.78600 101.55640 7990 ft 198 kts 214°
2026-05-06 10:12 14.77474 101.54826 7991 ft 198 kts 214°
2026-05-06 10:12 14.76348 101.54011 7990 ft 198 kts 214°
2026-05-06 10:13 14.75222 101.53195 7992 ft 197 kts 214°
2026-05-06 10:13 14.74097 101.52382 7992 ft 197 kts 214°
2026-05-06 10:13 14.73080 101.51438 7992 ft 197 kts 230°
2026-05-06 10:13 14.72248 101.50308 7991 ft 198 kts 233°
2026-05-06 10:14 14.71410 101.49181 7995 ft 197 kts 231°
2026-05-06 10:14 14.70538 101.48085 7996 ft 198 kts 230°
2026-05-06 10:14 14.69657 101.46992 7995 ft 198 kts 230°
2026-05-06 10:14 14.68778 101.45893 7993 ft 198 kts 230°
2026-05-06 10:15 14.67913 101.44808 7984 ft 198 kts 230°
2026-05-06 10:15 14.67038 101.43711 7982 ft 198 kts 230°
2026-05-06 10:15 14.66161 101.42615 7982 ft 198 kts 230°
2026-05-06 10:15 14.65285 101.41519 7986 ft 198 kts 230°
2026-05-06 10:16 14.64407 101.40418 7995 ft 199 kts 229°
2026-05-06 10:16 14.63525 101.39316 7994 ft 199 kts 229°
2026-05-06 10:16 14.62641 101.38210 7995 ft 200 kts 229°
2026-05-06 10:16 14.61755 101.37104 7994 ft 200 kts 229°
2026-05-06 10:17 14.60868 101.35995 7994 ft 200 kts 230°
2026-05-06 10:17 14.59981 101.34885 7993 ft 201 kts 229°
2026-05-06 10:17 14.59093 101.33776 7992 ft 200 kts 229°
2026-05-06 10:17 14.58207 101.32667 7992 ft 200 kts 230°
2026-05-06 10:18 14.57319 101.31558 7991 ft 200 kts 229°
2026-05-06 10:18 14.56431 101.30450 7979 ft 200 kts 230°
2026-05-06 10:18 14.55545 101.29341 7975 ft 200 kts 229°
2026-05-06 10:18 14.54659 101.28234 7974 ft 200 kts 230°
2026-05-06 10:19 14.53774 101.27130 7973 ft 199 kts 230°
2026-05-06 10:19 14.52891 101.26025 7974 ft 199 kts 230°
2026-05-06 10:19 14.52008 101.24922 7976 ft 199 kts 229°
2026-05-06 10:19 14.51121 101.23816 7972 ft 200 kts 229°
2026-05-06 10:20 14.50234 101.22710 7971 ft 200 kts 230°
2026-05-06 10:20 14.49351 101.21608 7971 ft 200 kts 230°
2026-05-06 10:20 14.48478 101.20517 7972 ft 200 kts 229°
2026-05-06 10:20 14.47594 101.19413 7971 ft 200 kts 229°
2026-05-06 10:21 14.46708 101.18308 7975 ft 199 kts 230°
2026-05-06 10:21 14.45823 101.17205 7974 ft 199 kts 230°
2026-05-06 10:21 14.44939 101.16101 7975 ft 199 kts 229°
2026-05-06 10:21 14.44053 101.14997 7974 ft 200 kts 229°
2026-05-06 10:22 14.43169 101.13894 7976 ft 200 kts 229°
2026-05-06 10:22 14.42283 101.12790 7975 ft 200 kts 230°
2026-05-06 10:22 14.41398 101.11686 7974 ft 200 kts 229°
2026-05-06 10:22 14.40513 101.10583 7975 ft 200 kts 229°
2026-05-06 10:23 14.39626 101.09478 7974 ft 200 kts 229°
2026-05-06 10:23 14.38741 101.08374 7975 ft 200 kts 229°
2026-05-06 10:23 14.37855 101.07271 7971 ft 200 kts 229°
2026-05-06 10:23 14.36969 101.06167 7972 ft 200 kts 229°
2026-05-06 10:24 14.36084 101.05064 7971 ft 200 kts 229°
2026-05-06 10:24 14.35198 101.03961 7972 ft 200 kts 229°
2026-05-06 10:24 14.34310 101.02856 7972 ft 200 kts 230°
2026-05-06 10:24 14.33425 101.01754 7972 ft 200 kts 230°
2026-05-06 10:25 14.32540 101.00650 7960 ft 200 kts 229°
2026-05-06 10:25 14.31654 100.99547 7962 ft 200 kts 229°
2026-05-06 10:25 14.30768 100.98445 7961 ft 200 kts 229°
2026-05-06 10:25 14.29881 100.97343 7961 ft 200 kts 229°
2026-05-06 10:26 14.28996 100.96239 7960 ft 200 kts 229°
2026-05-06 10:26 14.28109 100.95136 7961 ft 200 kts 229°
2026-05-06 10:26 14.27221 100.94032 7960 ft 200 kts 229°
2026-05-06 10:26 14.26333 100.92928 7961 ft 200 kts 229°
2026-05-06 10:27 14.25447 100.91826 7961 ft 200 kts 229°
2026-05-06 10:27 14.24571 100.90734 7895 ft 189 kts 229°
2026-05-06 10:27 14.23747 100.89699 7658 ft 191 kts 229°
2026-05-06 10:27 14.22895 100.88640 7394 ft 192 kts 229°
2026-05-06 10:28 14.22037 100.87577 7139 ft 193 kts 228°
2026-05-06 10:28 14.21177 100.86514 6871 ft 193 kts 229°
2026-05-06 10:28 14.20324 100.85451 6617 ft 192 kts 228°
2026-05-06 10:28 14.19472 100.84391 6363 ft 192 kts 228°
2026-05-06 10:29 14.18623 100.83339 6105 ft 189 kts 229°
2026-05-06 10:29 14.17792 100.82301 5835 ft 187 kts 228°
2026-05-06 10:29 14.16966 100.81275 5566 ft 185 kts 227°
2026-05-06 10:29 14.16146 100.80256 5301 ft 185 kts 227°
2026-05-06 10:30 14.15326 100.79239 5039 ft 184 kts 227°
2026-05-06 10:30 14.14509 100.78229 4778 ft 183 kts 228°
2026-05-06 10:30 14.13696 100.77218 4516 ft 183 kts 228°
2026-05-06 10:30 14.12886 100.76210 4250 ft 183 kts 228°
2026-05-06 10:31 14.12075 100.75204 3982 ft 182 kts 227°
2026-05-06 10:31 14.11269 100.74205 3724 ft 181 kts 227°
2026-05-06 10:31 14.10463 100.73209 3462 ft 181 kts 228°
2026-05-06 10:31 14.09657 100.72207 3202 ft 181 kts 228°
2026-05-06 10:32 14.08854 100.71211 2940 ft 181 kts 228°
2026-05-06 10:32 14.08027 100.70241 2704 ft 179 kts 223°
2026-05-06 10:32 14.07054 100.69490 2500 ft 173 kts 203°
2026-05-06 10:32 14.05918 100.69022 2283 ft 177 kts 200°
2026-05-06 10:33 14.04812 100.68475 2164 ft 177 kts 205°
2026-05-06 10:33 14.03749 100.67834 2046 ft 177 kts 208°
2026-05-06 10:33 14.02670 100.67251 1970 ft 176 kts 203°
2026-05-06 10:33 14.01560 100.66679 1757 ft 181 kts 205°
2026-05-06 10:34 14.00453 100.66051 1622 ft 182 kts 207°
2026-05-06 10:34 13.99356 100.65409 1493 ft 180 kts 206°
2026-05-06 10:34 13.98248 100.64814 1320 ft 182 kts 206°
2026-05-06 10:34 13.97193 100.64194 1044 ft 161 kts 208°
2026-05-06 10:35 13.96199 100.63652 916 ft 162 kts 206°
2026-05-06 10:35 13.95227 100.63117 649 ft 153 kts 208°
2026-05-06 10:35 13.94348 100.62614 510 ft 135 kts 208°
2026-05-06 10:35 13.93615 100.62199 333 ft 95 kts 207°
2026-05-06 10:36 13.93121 100.61927 216 ft 74 kts 206°
2026-05-06 10:36 13.92668 100.61674 113 ft 74 kts 206°
2026-05-06 10:36 13.92227 100.61427 17 ft 65 kts 206°
2026-05-06 10:36 13.91986 100.61292 16 ft 55 kts 208°
2026-05-06 10:37 13.91766 100.61283 16 ft 21 kts 125°
2026-05-06 10:37 13.91688 100.61290 16 ft 23 kts 210°
2026-05-06 10:37 13.91443 100.61145 17 ft 27 kts 211°
2026-05-06 10:37 13.91333 100.61079 16 ft 22 kts 210°
2026-05-06 10:38 13.91283 100.61049 16 ft 5 kts 209°
2026-05-06 10:38 13.91200 100.61029 16 ft 6 kts 188°
2026-05-06 10:38 13.91161 100.61017 16 ft 8 kts 208°
2026-05-06 10:38 13.91149 100.61011 16 ft 0 kts 207°